Theta_e
293 293 292 294 294 294 296 296 297 297 297 297 296 296 296 297 299 294 291 293 288 281 284 286 288 286 286 285 280 284 284 284 283 283 284 283 284 282 280 280 281 281 279 278 274 272 276 284 284 285 287 282 284 286
293 293 293 293 293 294 295 295 296 296 295 296 296 296 296 297 298 295 290 293 292 284 284 289 289 290 289 289 286 285 283 283 286 284 284 284 280 280 278 276 284 282 285 284 284 282 284 283 284 284 286 284 283 284
293 293 293 293 293 293 294 295 295 296 295 296 296 296 296 296 297 294 290 293 287 280 281 282 284 289 291 289 291 284 284 288 286 289 285 283 280 282 278 278 280 285 286 284 286 284 284 283 283 285 285 285 285 285
292 292 292 293 294 294 295 295 295 295 296 296 296 296 296 296 297 294 288 292 286 278 272 278 287 286 290 290 289 290 288 288 287 286 283 281 280 283 282 280 280 284 287 285 283 284 284 286 286 286 285 284 284 285
292 293 293 294 294 294 295 295 295 295 295 295 295 295 295 296 297 292 290 292 292 282 273 272 281 284 287 289 288 288 288 285 283 282 281 279 281 278 277 277 275 283 284 284 283 287 288 287 286 286 285 285 285 284
293 293 294 294 294 294 293 293 293 293 293 293 294 294 295 296 292 283 275 288 293 291 275 268 279 280 284 286 286 286 286 283 282 279 279 281 283 281 272 266 279 282 285 286 285 287 288 288 287 286 286 285 285 284
292 292 292 291 291 291 291 291 291 291 292 292 292 292 293 293 285 278 275 284 293 291 276 272 266 280 282 282 282 283 285 281 281 279 277 280 281 281 272 275 281 282 284 283 284 284 282 283 284 285 285 283 280 278
291 291 291 291 291 290 290 290 290 290 290 290 291 291 291 293 289 279 285 294 293 286 282 268 271 272 282 277 278 280 279 279 278 277 278 279 279 276 270 277 280 281 282 282 283 283 282 282 281 280 278 278 277 277
289 290 290 290 290 290 289 289 289 289 289 289 290 291 284 278 271 275 291 291 289 284 276 273 267 267 280 276 279 276 278 275 277 275 277 277 272 271 275 278 280 282 282 282 279 275 274 277 276 275 275 274 275 277
288 289 289 289 289 289 288 288 288 287 288 288 279 270 266 270 287 289 276 278 276 281 274 267 261 268 280 276 273 273 273 269 272 275 279 275 270 279 280 279 280 281 280 278 277 276 273 273 274 274 274 274 275 275
286 287 288 287 288 288 287 287 286 285 284 271 266 263 272 284 274 266 268 267 268 267 268 267 268 269 278 272 269 275 270 265 265 268 271 265 270 278 280 278 276 277 279 277 276 277 275 275 275 274 274 270 269 270
287 287 287 287 287 286 287 286 286 276 268 273 271 273 269 268 265 263 262 264 264 263 264 274 270 275 275 274 269 270 265 264 262 263 265 262 271 269 269 269 267 266 268 270 269 270 270 272 270 269 269 270 268 269
286 286 286 286 286 286 287 286 286 285 279 269 266 262 265 263 268 263 256 263 259 258 270 264 267 277 276 277 271 270 266 267 270 270 264 268 266 262 260 261 262 260 261 262 262 263 264 264 265 263 263 262 263 265
286 286 286 286 286 286 286 284 283 277 268 262 259 258 259 258 260 268 258 261 265 263 265 263 271 269 271 272 274 266 268 266 260 262 262 261 255 252 255 255 256 255 255 257 256 257 258 259 259 259 259 258 259 260
285 286 286 285 285 286 284 282 280 265 262 258 261 258 255 257 262 254 254 255 259 261 264 266 265 271 266 269 269 265 266 264 261 262 261 254 251 252 252 251 251 251 251 252 252 253 254 254 254 255 254 254 253 255
285 284 282 284 284 282 279 272 262 258 255 256 256 257 254 257 259 257 250 252 263 263 263 266 263 265 263 266 265 264 262 258 263 250 250 250 248 248 247 247 248 248 248 248 249 250 251 252 251 251 251 248 250 250
281 274 283 282 280 279 278 261 258 253 251 251 250 246 248 250 254 253 254 256 262 264 263 264 265 265 267 264 261 262 264 254 252 248 247 246 246 247 246 246 247 247 247 248 247 248 249 249 247 248 251 251 248 247
272 279 281 279 270 268 256 256 255 252 249 250 251 248 248 249 248 249 254 259 260 264 260 262 264 260 259 261 258 251 249 246 248 248 250 249 247 249 249 246 246 246 246 247 245 245 244 246 247 249 246 246 248 247
275 275 278 277 269 258 257 256 258 253 250 252 251 255 253 252 255 257 257 258 261 262 262 261 257 252 251 246 247 247 246 246 250 251 251 251 250 246 245 245 246 245 245 245 245 247 247 245 248 248 249 248 248 248
277 277 276 275 271 259 255 257 261 259 253 254 254 253 255 256 257 256 256 256 258 258 254 254 246 243 247 249 249 250 249 249 245 245 248 249 247 244 246 244 247 247 246 245 246 248 246 249 246 248 248 248 248 249
268 268 271 264 259 258 257 257 258 258 259 257 257 258 256 256 253 253 254 256 254 249 249 246 246 246 247 243 245 244 247 246 244 243 242 244 245 247 248 246 245 244 243 243 244 247 245 245 247 248 245 246 247 248
260 270 262 265 262 259 257 258 257 258 256 254 255 255 252 253 251 252 254 252 249 249 249 249 249 248 246 243 242 240 241 239 239 241 245 246 245 246 246 246 243 244 244 245 243 246 246 246 247 247 247 247 250 249
264 265 260 258 258 257 255 259 256 254 254 254 253 252 251 250 251 253 249 248 247 248 246 245 242 240 240 240 238 239 238 239 241 241 242 243 244 244 243 244 242 243 245 245 245 248 248 250 250 249 248 249 250 250
259 251 251 251 253 252 256 254 256 253 252 250 249 247 246 243 247 248 245 240 244 241 242 242 239 242 241 242 243 244 246 245 243 243 242 242 244 245 244 245 243 243 245 248 249 250 249 249 252 250 250 248 248 249
254 245 248 247 249 250 250 251 250 250 250 247 248 247 245 240 246 245 246 244 244 243 244 244 244 246 245 242 244 244 241 241 242 240 243 243 242 244 245 248 247 245 245 246 247 249 251 252 251 250 249 248 248 248
244 241 243 239 243 244 241 244 240 240 238 242 240 239 236 241 246 246 244 244 244 246 246 246 246 247 248 249 246 246 245 243 242 241 244 242 241 241 241 244 245 248 246 245 245 245 247 249 250 250 251 252 252 251
245 241 239 237 237 237 239 238 237 238 238 240 237 239 240 245 245 246 243 243 244 245 246 247 247 247 247 249 249 249 248 246 244 245 246 244 245 245 245 244 245 247 244 244 243 241 242 243 244 245 244 245 244 245
237 235 240 239 237 233 237 235 237 239 238 236 236 242 245 245 247 245 246 244 240 238 238 240 243 247 248 249 249 248 247 243 244 246 246 246 245 245 242 243 243 251 249 244 245 245 244 244 244 245 244 244 245 243
237 233 235 239 236 237 237 239 239 236 236 234 239 240 242 242 240 239 241 239 234 236 238 238 241 235 240 239 241 240 239 239 242 243 242 242 242 246 240 240 240 242 242 240 247 252 251 250 249 249 247 246 246 242
238 232 237 236 240 243 239 235 235 231 230 233 232 237 238 239 240 236 236 236 238 240 239 237 236 235 239 237 240 242 238 239 243 245 243 244 245 242 239 242 243 243 241 238 243 245 248 247 246 242 244 245 244 243
232 232 236 235 239 237 233 229 227 228 228 229 227 232 236 236 239 238 238 236 235 233 236 239 238 235 236 236 235 236 244 240 239 242 243 243 244 243 244 245 245 243 240 240 241 241 243 242 241 242 242 243 244 245
232 233 236 240 240 234 230 231 230 232 230 231 233 227 233 235 239 245 241 236 236 238 242 238 236 244 242 243 241 242 246 245 243 245 244 245 245 246 246 246 245 242 241 243 243 243 243 242 243 244 244 243 244 244
231 229 230 233 237 239 234 233 235 237 234 233 234 231 232 237 243 247 243 242 246 246 246 245 245 244 244 244 244 245 246 246 245 250 251 251 250 250 248 248 246 245 244 244 245 245 244 244 244 245 244 245 245 246
Wind_Speed
10 9 6 9 7 7 10 11 8 13 8 11 9 8 7 8 6 4 2 4 3 3 2 3 3 4 3 1 3 4 4 1 1 5 3 4 4 6 4 5 9 10 9 6 4 2 19 6 4 16 6 2 2 2
13 12 10 9 9 10 11 13 14 12 3 9 12 10 8 7 6 5 3 2 3 5 2 1 1 2 2 2 5 2 2 3 2 2 1 3 2 2 5 5 1 7 7 10 13 10 3 2 2 2 1 4 1 2
15 12 10 10 8 7 10 12 13 16 12 10 9 8 7 6 7 5 3 1 4 3 3 4 3 5 1 2 1 5 0 4 2 2 1 1 3 3 5 5 3 3 2 4 4 3 4 5 1 3 2 1 0 2
11 10 9 11 14 15 15 13 13 13 13 11 11 11 9 8 9 7 3 2 4 3 4 3 3 3 6 4 5 2 6 6 5 2 2 1 2 1 1 1 2 2 5 4 4 2 3 3 5 3 4 2 3 3
13 15 17 16 16 18 19 19 19 19 18 16 15 13 11 11 14 8 4 3 3 4 4 2 3 5 5 2 7 6 6 5 2 2 2 2 1 3 2 2 2 4 4 4 3 2 3 1 3 4 4 4 5 3
20 20 22 22 24 23 21 21 20 18 17 15 14 13 13 14 9 4 4 3 1 2 5 2 3 4 5 4 5 5 3 3 3 3 2 1 1 2 3 2 5 2 2 1 6 5 4 6 2 4 4 2 1 3
23 23 22 20 22 22 21 20 18 16 15 14 11 10 11 9 4 4 5 3 5 2 3 2 3 4 3 3 3 3 3 2 3 1 1 2 1 3 3 3 4 2 4 2 3 4 1 1 2 3 3 3 3 1
17 18 19 19 19 19 18 17 17 15 14 13 10 7 8 10 7 4 3 8 6 2 2 3 0 3 1 2 2 1 2 3 3 3 2 1 2 3 2 6 5 3 5 3 3 3 3 1 2 3 3 2 3 5
12 14 16 17 17 17 15 14 13 12 10 10 9 9 5 5 3 3 0 9 4 2 0 3 6 5 1 1 2 3 3 1 2 2 2 4 1 5 7 7 6 6 5 3 3 4 3 1 3 3 2 2 1 6
9 12 14 13 13 14 13 11 10 8 8 8 7 6 4 3 10 8 8 3 4 1 2 2 2 2 3 2 2 3 2 3 3 4 3 2 5 3 6 6 6 6 5 6 3 4 2 5 5 4 6 4 4 4
10 12 13 12 13 12 11 10 8 7 12 5 3 1 4 9 4 5 2 4 1 3 2 4 4 4 0 4 4 1 3 1 2 6 5 2 5 3 2 3 6 6 5 3 1 3 3 2 1 3 5 3 4 5
15 16 16 15 14 12 12 9 8 6 3 4 3 1 3 5 4 6 3 1 2 7 3 5 4 4 2 3 5 1 4 3 5 2 5 4 5 4 6 6 9 10 9 6 7 6 6 6 6 4 3 5 5 6
16 16 16 14 12 12 13 10 10 10 6 5 6 6 5 4 4 8 6 4 2 2 4 2 1 2 2 2 3 3 4 5 2 3 6 6 2 4 6 4 4 9 10 9 9 7 7 5 6 6 7 4 7 7
18 16 16 15 13 13 13 9 8 6 6 5 4 2 6 3 5 2 5 6 4 2 4 2 4 3 1 2 2 5 3 5 3 3 8 3 2 3 5 5 6 8 9 7 6 6 5 6 6 6 6 6 7 7
10 18 18 14 13 15 12 10 10 5 5 3 4 5 4 3 3 2 3 3 4 3 1 3 4 3 1 4 2 4 1 4 6 7 4 2 4 5 5 6 6 7 8 7 7 8 8 7 6 6 4 6 5 6
19 17 11 16 15 12 8 9 7 4 5 5 6 2 3 2 3 4 3 3 4 4 2 3 3 4 3 4 3 5 6 6 6 1 2 3 5 5 4 5 5 5 5 5 5 5 5 6 7 7 7 4 5 4
11 3 16 15 14 14 15 6 5 7 5 5 2 1 2 1 3 3 1 3 5 3 2 3 4 6 1 4 0 2 5 3 1 1 2 1 2 5 5 5 6 6 6 6 6 6 5 6 5 4 7 7 6 5
4 6 14 9 5 6 5 5 5 5 5 1 3 4 1 2 2 3 3 2 4 3 0 3 3 4 4 6 4 1 1 2 2 1 2 2 2 4 3 5 5 5 5 6 4 5 4 5 5 4 5 5 6 5
7 7 10 10 7 6 5 5 4 4 2 1 1 1 1 2 2 3 3 4 3 2 3 3 6 2 2 1 2 1 1 2 3 3 4 3 2 4 6 4 5 5 5 4 4 4 4 5 4 3 4 3 3 3
18 18 14 15 8 5 5 3 1 3 2 1 2 1 1 1 2 2 4 5 3 3 7 6 2 3 1 1 0 1 1 1 0 4 3 2 2 4 4 3 4 5 5 5 4 3 4 4 2 4 3 2 2 4
9 8 11 7 4 6 4 3 3 2 1 2 2 2 1 2 3 4 4 5 5 4 2 0 1 1 0 2 2 1 2 2 3 4 3 4 3 4 6 4 4 3 2 3 3 4 3 3 4 4 3 3 3 3
2 9 4 5 4 3 5 3 2 2 2 1 2 2 3 3 3 4 4 6 4 1 1 2 2 2 3 4 3 4 3 2 3 3 6 6 5 4 4 3 3 4 4 4 2 4 4 4 4 3 3 4 3 3
6 5 5 6 5 6 2 2 2 5 3 3 3 4 3 3 2 4 4 2 1 1 1 2 3 3 5 4 3 4 4 3 3 4 4 4 4 4 3 4 2 2 4 4 2 4 4 5 5 4 3 3 2 2
11 9 8 6 7 3 3 4 3 3 3 5 4 3 4 3 6 4 2 3 4 2 2 3 1 4 3 2 2 3 2 2 3 4 3 1 3 4 3 4 2 2 3 4 4 4 3 4 6 4 4 3 4 3
9 12 7 8 5 5 7 6 6 5 3 4 3 4 4 4 3 4 0 4 1 2 2 2 1 2 2 3 2 3 3 3 1 3 4 1 1 3 4 4 1 0 3 3 4 5 6 4 4 4 4 3 4 4
11 6 6 3 4 5 3 4 5 3 3 5 2 4 4 3 5 1 3 3 2 2 2 2 1 2 3 3 2 2 3 3 2 2 4 3 2 2 3 3 3 2 1 1 2 4 6 6 6 7 6 6 6 5
8 6 4 0 2 1 2 1 0 3 3 2 3 6 4 5 2 5 3 3 2 3 2 2 2 3 4 4 3 3 3 3 5 5 4 4 4 5 5 4 4 4 2 3 1 2 4 5 6 5 5 4 4 3
3 2 2 5 2 1 2 1 2 2 3 2 1 4 2 5 4 4 5 2 2 2 3 4 4 4 5 5 4 4 5 2 4 7 5 5 5 4 5 4 5 10 6 3 4 4 4 5 6 6 6 6 6 3
3 2 1 4 3 2 1 2 2 3 2 3 2 3 5 4 4 3 3 1 1 2 3 3 4 3 4 4 4 3 3 2 2 4 3 4 4 4 2 2 3 3 3 4 8 9 9 8 8 8 8 6 6 3
4 1 2 1 2 2 3 3 3 2 1 2 1 4 4 5 5 1 1 1 1 4 4 3 2 0 4 1 4 6 3 5 6 5 4 5 5 3 2 4 5 5 3 3 5 7 9 5 6 4 4 4 4 4
1 3 2 1 3 3 3 1 1 1 1 1 1 3 5 6 7 4 3 3 2 1 2 4 4 3 4 3 4 2 5 2 6 8 7 5 6 6 7 6 6 4 4 4 5 5 6 5 4 6 7 9 9 9
3 2 1 3 4 3 3 3 2 1 2 2 3 1 4 4 5 5 3 4 2 2 6 4 2 5 5 5 4 4 7 5 5 7 9 8 9 9 8 7 6 5 5 7 7 7 8 9 8 9 10 12 12 13
2 0 1 3 5 5 4 5 3 5 2 2 4 3 3 3 6 5 2 6 6 4 4 5 5 5 6 7 8 7 8 8 9 12 14 15 16 14 9 7 7 7 8 8 9 9 11 12 12 13 13 14 14 14
Wind_Direction
190 191 159 160 171 167 158 134 142 145 177 153 140 120 107 92 104 80 36 6 101 101 28 40 177 125 95 54 132 147 103 98 105 190 204 164 161 200 119 171 174 161 156 189 117 175 256 155 54 172 218 33 37 61
190 174 172 166 170 184 172 172 153 153 188 161 146 126 110 98 93 81 84 358 39 76 151 310 20 88 123 124 123 42 110 123 124 135 196 101 131 130 152 209 147 197 190 191 184 210 213 197 42 72 104 126 113 337
174 164 163 148 161 166 186 169 169 164 168 172 144 132 112 106 99 88 99 58 55 73 354 44 34 351 351 62 185 120 347 134 133 28 102 155 147 134 181 225 97 251 298 166 112 209 157 189 199 191 176 108 188 235
147 144 151 140 131 120 131 135 144 146 145 143 134 122 112 111 105 87 84 10 83 115 106 293 329 24 325 5 51 71 124 88 101 80 97 31 121 213 166 175 164 181 133 154 298 288 316 168 205 194 186 188 271 298
145 145 132 127 123 116 107 103 102 103 104 107 108 110 115 113 103 80 73 60 67 112 167 257 325 349 354 21 65 75 92 97 113 101 106 188 131 102 1 54 258 186 166 170 223 167 93 286 280 169 182 241 247 254
102 109 107 101 100 96 99 95 93 92 92 92 89 87 94 111 96 62 40 327 79 47 91 80 286 356 4 50 81 69 61 79 90 129 189 228 273 106 115 198 267 203 181 226 183 179 176 177 195 352 348 322 193 203
107 103 104 105 96 91 90 88 86 84 82 77 77 81 91 88 71 104 177 209 143 75 72 51 354 319 343 63 34 53 32 67 96 91 28 145 82 90 106 205 278 168 152 108 91 106 86 187 145 34 58 33 16 346
107 112 108 105 101 98 95 90 85 82 79 69 68 85 82 80 69 33 325 112 90 96 108 112 129 35 19 93 90 18 76 41 6 161 19 126 26 74 263 241 265 140 136 141 202 90 96 131 29 9 18 22 7 310
107 110 107 109 106 100 94 90 83 74 62 53 69 69 49 37 46 264 242 76 64 68 147 109 147 212 176 130 128 30 79 73 322 123 228 98 239 221 214 210 207 196 173 199 84 64 38 180 284 300 356 338 286 282
114 119 113 113 116 113 102 89 77 65 49 64 47 48 10 274 317 101 13 52 12 34 49 179 39 168 170 77 64 93 70 155 169 227 100 148 249 232 185 211 216 231 216 130 87 306 316 284 246 246 222 244 220 268
137 139 117 123 123 122 106 86 66 57 43 38 50 142 242 323 53 34 80 101 287 334 194 214 160 135 170 126 163 251 157 178 131 256 147 257 264 219 201 201 16 22 3 257 266 62 84 160 312 317 317 307 273 267
130 131 126 120 120 115 107 90 73 62 157 165 163 84 20 42 38 96 214 331 154 218 296 157 211 144 162 114 101 246 133 53 210 143 103 245 238 46 45 30 15 10 359 39 27 43 24 35 14 339 327 349 348 316
145 136 126 116 114 106 96 89 85 100 77 34 43 41 60 291 215 163 194 266 340 230 183 186 88 121 104 117 85 114 105 211 116 144 216 230 58 30 20 4 29 17 14 25 21 18 22 16 19 22 347 346 332 326
154 144 136 124 117 114 99 77 65 58 70 82 98 4 155 245 245 218 189 187 248 163 160 156 118 137 148 84 137 113 201 98 74 156 229 244 14 338 7 12 21 355 0 4 12 356 3 6 348 346 5 346 339 336
151 142 125 111 106 97 84 58 50 50 83 99 74 230 217 258 218 237 269 319 319 288 134 77 42 97 199 114 149 79 75 202 194 220 224 348 344 349 6 1 358 352 347 343 344 347 343 347 345 324 328 328 332 326
95 83 93 95 88 81 66 40 31 65 45 63 38 6 307 47 327 8 353 312 341 336 302 58 117 88 244 141 119 207 139 212 231 122 316 339 335 341 331 333 331 321 325 323 321 312 316 343 339 316 312 348 336 336
57 26 104 93 85 67 45 68 44 43 99 52 352 356 149 210 257 285 304 294 317 321 180 119 117 199 90 87 306 203 206 213 304 291 277 274 311 315 315 317 327 328 328 327 321 334 319 311 318 348 351 327 331 322
25 90 96 92 83 51 28 42 74 71 52 336 76 279 286 192 243 299 287 288 313 344 49 182 124 82 163 167 251 320 324 276 237 241 310 310 324 336 320 308 316 305 301 305 289 295 300 337 345 321 301 304 320 332
74 62 70 67 79 88 68 1 57 96 227 213 277 338 167 246 246 274 298 300 269 286 308 22 68 135 201 222 193 269 292 338 331 327 301 298 301 317 315 310 309 310 305 298 312 300 291 264 260 287 296 311 303 300
62 54 53 47 52 73 56 359 349 79 69 264 72 11 203 295 301 310 352 355 16 25 37 41 153 210 158 112 191 291 284 293 7 313 301 283 286 328 309 291 299 303 304 317 319 327 330 324 313 319 309 304 323 310
35 357 24 60 47 60 73 353 59 38 13 48 315 9 27 21 24 8 359 335 61 34 61 78 212 229 260 254 278 264 276 213 208 194 239 293 296 309 308 311 320 320 331 306 313 313 333 280 282 298 303 302 299 290
296 14 46 11 79 65 78 15 24 347 33 275 30 33 28 21 2 9 318 44 52 9 326 333 343 325 338 312 268 208 242 238 267 274 271 275 286 316 316 288 327 310 310 286 275 296 292 278 287 293 313 298 320 317
22 26 49 11 68 35 17 261 50 1 53 351 17 38 21 359 359 324 71 44 269 260 227 236 243 223 226 284 335 290 211 203 284 268 270 257 262 262 265 277 237 268 310 299 269 291 290 298 309 314 307 318 324 323
35 45 31 37 12 32 302 20 21 21 35 24 25 13 343 300 323 50 72 275 254 330 349 289 356 329 343 333 277 248 236 211 276 293 249 274 306 291 259 263 250 242 233 276 287 298 308 313 321 327 326 327 326 323
67 2 13 11 14 8 24 8 359 22 44 351 5 357 344 346 51 50 132 268 267 234 238 286 295 229 215 253 275 269 234 162 211 290 278 207 282 313 318 335 334 282 307 346 350 332 327 326 329 330 332 340 337 327
68 336 44 325 344 39 341 14 10 347 349 353 328 278 6 40 54 304 250 239 239 221 225 218 254 313 289 220 251 291 263 196 140 237 264 177 167 199 271 304 311 289 25 28 338 324 324 332 333 334 326 335 330 331
55 342 332 218 135 116 3 347 46 73 39 2 309 343 24 58 292 263 286 240 219 236 206 215 211 230 254 282 268 258 253 203 205 230 267 236 225 204 202 228 259 254 320 297 264 237 272 298 303 306 302 303 280 271
130 35 32 320 3 89 139 45 46 19 272 240 68 6 125 186 236 238 213 246 213 295 287 272 248 245 257 264 271 282 288 300 289 267 264 256 238 228 217 232 248 277 282 261 261 261 243 253 268 277 275 274 281 262
39 312 123 342 335 23 162 143 237 240 194 115 158 269 255 239 247 240 263 221 119 56 313 317 301 344 295 287 261 247 229 168 39 348 330 290 328 297 212 233 264 271 261 269 277 273 267 257 249 251 253 252 261 264
326 42 36 34 48 323 257 163 233 254 231 208 263 301 282 269 252 220 255 315 258 244 234 232 251 124 267 313 304 310 253 191 197 176 197 238 233 240 247 268 271 263 249 251 274 287 301 311 315 326 313 295 283 277
319 31 9 186 257 252 237 267 320 347 10 289 298 195 262 304 306 242 203 215 202 129 327 293 291 209 206 225 209 270 297 247 218 236 246 265 273 269 265 261 254 247 243 246 255 256 265 271 253 268 274 271 268 261
8 92 87 312 295 300 24 30 316 322 317 3 278 282 304 339 290 279 197 129 87 282 241 202 226 269 213 233 235 244 253 269 236 237 239 245 253 255 256 255 249 228 235 245 244 246 243 247 259 255 260 262 262 261
354 129 213 328 325 340 340 5 8 330 340 300 270 212 228 202 250 281 257 211 218 223 238 229 235 248 244 244 242 252 243 248 255 260 261 255 255 257 256 247 237 226 231 240 243 240 243 244 251 254 254 256 260 262